Regional Weather Roundup
Issued by NWS Burlington, VT

Home | Current Version | Previous Version | Text Only | Print | Product List | Glossary On
Versions: 1 2 3 4 5 6 7 8 9 10 11 12 13 14 15 16 17 18 19 20 21 22 23 24 25 26 27 28 29 30 31 32 33 34 35 36 37 38 39 40 41 42 43 44 45 46 47 48 49 50
000
ASUS41 KBTV 230730
RWRBTV
VERMONT REGIONAL WEATHER ROUNDUP
NATIONAL WEATHER SERVICE BURLINGTON VT
300 AM EDT WED JUL 23 2014

NOTE: "FAIR" INDICATES FEW OR NO CLOUDS BELOW 12,000 FEET WITH NO
SIGNIFICANT WEATHER AND/OR OBSTRUCTIONS TO VISIBILITY.

* THESE REPORTS ARE NOT UNDER NWS QUALITY CONTROL AND/OR DO NOT
  REPORT WEATHER SUCH AS PRECIPITATION AND FOG.

VTZ001>019-230800-
_____VERMONT_____


CITY           SKY/WX    TMP DP  RH WIND       PRES   REMARKS
BURLINGTON     SUNNY     76  69  79 S13       29.85F
MONTPELIER     MOSUNNY   73  66  78 SW6       29.95F
MORRISVILLE    SUNNY     64  62  93 CALM      29.90F
ST. JOHNSBURY*   N/A     64  63  96 MISG      29.89F
LYNDONVILLE*   FAIR      67  64  87 CALM      29.93F
MIDDLEBURY*    FAIR      76  69  79 SE8       29.88F
RUTLAND*       SUNNY     73  66  78 S3        29.92F
SPRINGFIELD    SUNNY     67  65  93 CALM      29.94F
HIGHGATE*      FAIR      74  67  80 S6        29.83S
NEWPORT*       FAIR     N/A N/A N/A S5        29.89F
BENNINGTON     MOSUNNY   73  67  81 VRB3      29.96F
SUTTON*          N/A     66 N/A N/A MISG        N/A
MT. MANSFIELD*   N/A     63 N/A N/A W17G30      N/A

_____LAKE CHAMPLAIN_____


CITY           SKY/WX    TMP DP  RH WIND       PRES   REMARKS
BURTON ISLAND*   N/A     77  70  78 S8          N/A
COLCHESTER RF*   N/A     73  72  94 SW18        N/A
DIAMOND ISL*     N/A     75  70  83 S12         N/A

$$

NYZ007-026>031-035-052-083-230800-
_____NORTHERN NEW YORK_____


CITY           SKY/WX    TMP DP  RH WIND       PRES   REMARKS
PLATTSBURGH    SUNNY     66  63  90 CALM      29.84F
SARANAC LAKE   SUNNY     63  62  97 NW3       29.92F
MASSENA        MOSUNNY   72  66  81 SW7       29.83F
OGDENSBURG*    SUNNY     70  64  83 CALM      29.83F
POTSDAM*       MOSUNNY   73  70  88 SW7       29.84F
WATERTOWN      CLOUDY    76  67  73 SW10      29.86S
FT DRUM        MOSUNNY   76  71  84 W7        29.88R
ALBANY         PTSUNNY   75  68  78 S7        29.93F
GLENS FALLS    SUNNY     74  69  85 S9        29.91F

$$
NHZ002-005-011-230800-
_____NEW HAMPSHIRE_____


CITY           SKY/WX    TMP DP  RH WIND       PRES   REMARKS
LEBANON        SUNNY     68  65  90 CALM      29.91F
KEENE          SUNNY     68  59  73 S5        29.95F
MT WASHINGTON  FOG       54  54 100 W47G54      N/A  VSB 0
PLYMOUTH       CLOUDY    63  62  96 CALM      29.92F FOG
WHITEFIELD     SUNNY     62  60  93 CALM      29.92F

$$

_____REGIONAL QUEBEC LOCATIONS_____


CITY           SKY/WX    TMP DP  RH WIND       PRES   REMARKS
MONTREAL       SUNNY     72  64  78 SW7       29.80F
QUEBEC CITY    MOSUNNY   66  64  94 SW6       29.76F
SHERBROOKE     CLOUDY    63  63 100 CALM      29.85F FOG

_____REGIONAL ONTARIO LOCATIONS_____


CITY           SKY/WX    TMP DP  RH WIND       PRES   REMARKS
OTTAWA         CLOUDY    70  63  78 SW9       29.79F

______KEY______
VSB  - VISIBILITY IN MILES
WCI  - WIND CHILL INDEX
HX   - HEAT INDEX
$$
NNNN


USA.gov is the U.S. government's official web portal to all federal, state and local government web resources and services.